Hourly Weather Ruszkowo

Today, 16 May, Sunday

Time Temperature Precipitation Wind Pressure Humidity
00:00 +11°C° 0.1 mm 3 mps 744 mmHg 80%
01:00 +11°C° 0 mm 3 mps 744 mmHg 80%
02:00 +11°C° 0.2 mm 3 mps 744 mmHg 81%
03:00 +11°C° 0.2 mm 3 mps 743 mmHg 81%
04:00 +11°C° 0.2 mm 3 mps 743 mmHg 82%
05:00 +11°C° 0 mm 3 mps 743 mmHg 83%
06:00 +11°C° 0 mm 3 mps 743 mmHg 85%
07:00 +12°C° 0 mm 3 mps 743 mmHg 86%
08:00 +13°C° 0.3 mm 3 mps 743 mmHg 84%
09:00 +13°C° 0.3 mm 3 mps 743 mmHg 83%
10:00 +14°C° 0.3 mm 3 mps 743 mmHg 81%
11:00 +15°C° 0.4 mm 4 mps 743 mmHg 78%
12:00 +15°C° 0.4 mm 4 mps 743 mmHg 75%
13:00 +17°C° 0.4 mm 4 mps 743 mmHg 73%
14:00 +17°C° 0.6 mm 4 mps 742 mmHg 73%
15:00 +17°C° 0.6 mm 3 mps 742 mmHg 74%
16:00 +17°C° 0.6 mm 3 mps 742 mmHg 74%
17:00 +16°C° 0.4 mm 3 mps 742 mmHg 79%
18:00 +13°C° 0.4 mm 3 mps 742 mmHg 83%
19:00 +13°C° 0.4 mm 2 mps 742 mmHg 88%
20:00 +13°C° 0 mm 2 mps 742 mmHg 89%
21:00 +12°C° 0 mm 2 mps 743 mmHg 91%
22:00 +10°C° 0 mm 2 mps 743 mmHg 92%
23:00 +10°C° 0 mm 2 mps 743 mmHg 92%

Tomorrow, 17 May, Monday

Time Temperature Precipitation Wind Pressure Humidity
00:00 +9°C° 0 mm 2 mps 743 mmHg 92%
01:00 +9°C° 0 mm 2 mps 743 mmHg 93%
02:00 +8°C° 0 mm 2 mps 743 mmHg 92%
03:00 +8°C° 0 mm 2 mps 743 mmHg 92%
04:00 +8°C° 0 mm 2 mps 743 mmHg 92%
05:00 +9°C° 0 mm 2 mps 743 mmHg 88%
06:00 +12°C° 0 mm 2 mps 743 mmHg 84%
07:00 +13°C° 0 mm 3 mps 743 mmHg 81%
08:00 +14°C° 0 mm 3 mps 743 mmHg 74%
09:00 +16°C° 0 mm 3 mps 743 mmHg 68%
10:00 +18°C° 0 mm 4 mps 743 mmHg 62%
11:00 +18°C° 0.1 mm 4 mps 743 mmHg 61%
12:00 +18°C° 0.1 mm 4 mps 743 mmHg 60%
13:00 +18°C° 0.1 mm 3 mps 743 mmHg 59%
14:00 +15°C° 1.1 mm 4 mps 743 mmHg 71%
15:00 +13°C° 1.1 mm 4 mps 743 mmHg 83%
16:00 +10°C° 1.1 mm 5 mps 743 mmHg 95%
17:00 +11°C° 0.4 mm 4 mps 743 mmHg 95%
18:00 +11°C° 0.4 mm 3 mps 743 mmHg 95%
19:00 +11°C° 0.4 mm 3 mps 743 mmHg 95%
20:00 +12°C° 1.3 mm 2 mps 743 mmHg 96%
21:00 +10°C° 1.3 mm 2 mps 743 mmHg 96%
22:00 +11°C° 1.3 mm 1 mps 743 mmHg 97%
23:00 +10°C° 1.1 mm 2 mps 743 mmHg 97%

Day after tomorrow, 18 May, Tuesday

Time Temperature Precipitation Wind Pressure Humidity
00:00 +10°C° 1.1 mm 2 mps 743 mmHg 98%
01:00 +10°C° 1.1 mm 2 mps 743 mmHg 98%
02:00 +10°C° 0.6 mm 3 mps 743 mmHg 98%
03:00 +10°C° 0.6 mm 3 mps 743 mmHg 98%
04:00 +10°C° 0.6 mm 3 mps 743 mmHg 98%
05:00 +10°C° 0.6 mm 3 mps 743 mmHg 97%
06:00 +10°C° 0.6 mm 3 mps 743 mmHg 96%
07:00 +10°C° 0.6 mm 3 mps 743 mmHg 96%
08:00 +11°C° 0.2 mm 3 mps 743 mmHg 92%
09:00 +12°C° 0.2 mm 4 mps 743 mmHg 88%
10:00 +12°C° 0.2 mm 4 mps 744 mmHg 84%
11:00 +13°C° 0.4 mm 4 mps 744 mmHg 81%
12:00 +13°C° 0.4 mm 4 mps 744 mmHg 79%
13:00 +14°C° 0.4 mm 4 mps 744 mmHg 76%
14:00 +14°C° 0.6 mm 4 mps 744 mmHg 77%
15:00 +14°C° 0.6 mm 4 mps 744 mmHg 77%
16:00 +14°C° 0.6 mm 4 mps 744 mmHg 78%
17:00 +13°C° 0.5 mm 4 mps 745 mmHg 82%
18:00 +12°C° 0.5 mm 3 mps 745 mmHg 85%
19:00 +12°C° 0.5 mm 2 mps 745 mmHg 89%
20:00 +12°C° 0 mm 2 mps 746 mmHg 91%
21:00 +10°C° 0 mm 2 mps 746 mmHg 92%
22:00 +9°C° 0 mm 2 mps 746 mmHg 94%
23:00 +8°C° 0 mm 2 mps 746 mmHg 94%

19 May, Wednesday

Time Temperature Precipitation Wind Pressure Humidity
00:00 +8°C° 0 mm 2 mps 747 mmHg 95%
01:00 +8°C° 0 mm 2 mps 747 mmHg 95%
02:00 +7°C° 0 mm 3 mps 747 mmHg 95%
03:00 +7°C° 0 mm 3 mps 747 mmHg 95%
04:00 +5°C° 0 mm 3 mps 747 mmHg 95%
05:00 +8°C° 0 mm 3 mps 747 mmHg 92%
06:00 +9°C° 0 mm 3 mps 748 mmHg 88%
07:00 +11°C° 0 mm 3 mps 748 mmHg 85%
08:00 +12°C° 0.2 mm 4 mps 748 mmHg 79%
09:00 +13°C° 0.2 mm 4 mps 748 mmHg 73%
10:00 +14°C° 0.2 mm 4 mps 748 mmHg 67%
11:00 +14°C° 0.2 mm 4 mps 748 mmHg 68%
12:00 +14°C° 0.2 mm 4 mps 748 mmHg 69%
13:00 +14°C° 0.2 mm 4 mps 748 mmHg 70%
14:00 +14°C° 0.5 mm 4 mps 748 mmHg 71%
15:00 +14°C° 0.5 mm 4 mps 748 mmHg 72%
16:00 +14°C° 0.5 mm 4 mps 748 mmHg 73%
17:00 +13°C° 0.3 mm 3 mps 748 mmHg 76%
18:00 +12°C° 0.3 mm 3 mps 748 mmHg 80%
19:00 +12°C° 0.3 mm 2 mps 749 mmHg 84%
20:00 +10°C° 0 mm 2 mps 749 mmHg 86%
21:00 +9°C° 0 mm 2 mps 749 mmHg 87%
22:00 +7°C° 0 mm 3 mps 749 mmHg 89%
23:00 +7°C° 0 mm 3 mps 749 mmHg 89%

20 May, Thursday

Time Temperature Precipitation Wind Pressure Humidity
00:00 +5°C° 0 mm 3 mps 749 mmHg 89%
01:00 +4°C° 0 mm 3 mps 749 mmHg 90%
02:00 +4°C° 0 mm 3 mps 749 mmHg 91%
03:00 +4°C° 0 mm 3 mps 749 mmHg 92%
04:00 +4°C° 0 mm 3 mps 749 mmHg 94%
05:00 +5°C° 0 mm 3 mps 750 mmHg 89%
06:00 +7°C° 0 mm 4 mps 750 mmHg 85%
07:00 +10°C° 0 mm 4 mps 750 mmHg 81%
08:00 +11°C° 0 mm 4 mps 750 mmHg 74%
09:00 +13°C° 0 mm 5 mps 750 mmHg 68%
10:00 +14°C° 0 mm 5 mps 750 mmHg 61%
11:00 +14°C° 0 mm 4 mps 750 mmHg 60%
12:00 +15°C° 0 mm 4 mps 750 mmHg 58%
13:00 +15°C° 0 mm 4 mps 750 mmHg 56%
14:00 +15°C° 0.2 mm 4 mps 750 mmHg 58%
15:00 +15°C° 0.2 mm 5 mps 750 mmHg 60%
16:00 +15°C° 0.2 mm 5 mps 750 mmHg 62%
17:00 +13°C° 0.1 mm 4 mps 750 mmHg 67%
18:00 +12°C° 0.1 mm 3 mps 750 mmHg 72%
19:00 +11°C° 0.1 mm 3 mps 750 mmHg 77%
20:00 +10°C° 0 mm 3 mps 750 mmHg 81%
21:00 +9°C° 0 mm 3 mps 750 mmHg 84%
22:00 +8°C° 0 mm 3 mps 750 mmHg 88%
23:00 +7°C° 0 mm 3 mps 750 mmHg 90%

21 May, Friday

Time Temperature Precipitation Wind Pressure Humidity
00:00 +7°C° 0 mm 3 mps 750 mmHg 91%
01:00 +5°C° 0 mm 3 mps 750 mmHg 93%
02:00 +5°C° 0 mm 3 mps 750 mmHg 94%
03:00 +5°C° 0 mm 3 mps 750 mmHg 94%
04:00 +5°C° 0 mm 3 mps 750 mmHg 95%
05:00 +7°C° 0 mm 3 mps 750 mmHg 89%
06:00 +9°C° 0 mm 3 mps 750 mmHg 83%
07:00 +10°C° 0 mm 3 mps 750 mmHg 77%
08:00 +11°C° 0 mm 4 mps 750 mmHg 71%
09:00 +12°C° 0 mm 5 mps 750 mmHg 65%
10:00 +13°C° 0 mm 5 mps 750 mmHg 59%
11:00 +14°C° 0 mm 5 mps 749 mmHg 57%
12:00 +14°C° 0 mm 5 mps 749 mmHg 55%
13:00 +15°C° 0 mm 5 mps 749 mmHg 53%
14:00 +14°C° 0.1 mm 4 mps 748 mmHg 59%
15:00 +14°C° 0.1 mm 4 mps 748 mmHg 64%
16:00 +14°C° 0.1 mm 4 mps 748 mmHg 70%
17:00 +13°C° 0.1 mm 4 mps 748 mmHg 74%
18:00 +12°C° 0.1 mm 4 mps 747 mmHg 77%
19:00 +12°C° 0.1 mm 3 mps 747 mmHg 81%
20:00 +11°C° 0 mm 3 mps 747 mmHg 82%
21:00 +10°C° 0 mm 4 mps 747 mmHg 84%
22:00 +10°C° 0 mm 4 mps 746 mmHg 85%
23:00 +10°C° 0 mm 4 mps 746 mmHg 85%
Show more